Regional Weather Roundup
Issued by NWS Boston, MA

Home | Current Version | Previous Version | Text Only | Print | Product List | Glossary On
Versions: 1 2 3 4 5 6 7 8 9 10 11 12 13 14 15 16 17 18 19 20 21 22 23 24 25 26 27 28 29 30 31 32 33 34 35 36 37 38 39 40 41 42 43 44 45 46 47
000
ASUS41 KBOX 080710
RWRBOX

REGIONAL WEATHER ROUNDUP
NATIONAL WEATHER SERVICE TAUNTON MA
300 AM EDT WED JUL 08 2015

NOTE:  "FAIR" INDICATES FEW OR NO CLOUDS BELOW 12,000 FEET WITH NO
SIGNIFICANT WEATHER AND/OR OBSTRUCTIONS TO VISIBILITY.  THE FOLLOWING
OBSERVATION LOCATIONS DO NOT REPORT PRESENT WEATHER...PROVINCETOWN...
SMITHFIELD...BLOCK ISLAND...KEENE...AND OXFORD.

MAZALL-080800-
EASTERN MASSACHUSETTS

CITY           SKY/WX    TMP DP  RH WIND       PRES   REMARKS
BOSTON         MOCLDY    74  70  87 SW13      29.90S
BEVERLY        CLEAR     74  69  85 SW8       29.88F
LAWRENCE       CLEAR     73  70  90 SW8       29.90F
BEDFORD        CLEAR     72  69  90 SW7       29.89S
BLUE HILL        N/A     71  70  96 SW14      29.92F
NORWOOD        CLEAR     74  71  91 SW7       29.91S
MARSHFIELD     CLEAR     73  72  94 SW7       29.93S
PLYMOUTH       MOCLDY    72  71  97 SW9       29.93F
TAUNTON        PTCLDY    73  70  90 S6        29.92S
NEW BEDFORD    CLOUDY    72  70  93 SW7       29.93S
$$

MAZALL-080800-
CAPE COD AND THE ISLANDS

CITY           SKY/WX    TMP DP  RH WIND       PRES   REMARKS
FALMOUTH       FOG       72  72 100 SW16      29.95S VSB 1/2
HYANNIS        CLOUDY    73  71  93 SW16G30   29.93F FOG
CHATHAM        CLOUDY    71  70  96 SW8       29.96S
PROVINCETOWN   CLOUDY    70  64  83 SW12      29.93S
NANTUCKET      CLOUDY    68  66  93 SW8       29.96F FOG
MARTHAS VNYRD  CLOUDY    72  70  93 SW12      29.95F FOG
$$

MAZALL-080800-
CENTRAL AND WESTERN MASSACHUSETTS

CITY           SKY/WX    TMP DP  RH WIND       PRES   REMARKS
WORCESTER      CLEAR     71  68  90 SW12      29.94F
FITCHBURG      CLEAR     74  68  81 VRB6      29.91S
ORANGE         MOCLDY    69  67  93 S3        29.91F
SPRINGFIELD    NOT AVBL
WESTFIELD      CLEAR     69  67  93 S3        29.90F
NORTH ADAMS    PTCLDY    66  65  96 CALM      29.90F FOG
PITTSFIELD     CLEAR     71  67  87 SW3       29.92F
$$

RIZALL-080800-
RHODE ISLAND

CITY           SKY/WX    TMP DP  RH WIND       PRES   REMARKS
PROVIDENCE     CLEAR     72  70  93 S5        29.94S
NEWPORT        FOG       70  70 100 SW5       29.94F VSB 1
BLOCK ISLAND   CLOUDY    70  68  94 SW15      29.95F
SMITHFIELD     CLEAR     72  64  78 SW3       29.93F
WESTERLY       CLOUDY    72  70  93 SW6       29.95F FOG
$$

CTZALL-080800-
CONNECTICUT

CITY           SKY/WX    TMP DP  RH WIND       PRES   REMARKS
BRADLEY INTL   PTCLDY    70  68  93 S7        29.91F FOG
HARTFORD       CLEAR     71  70  96 S5        29.91F
BRIDGEPORT     CLEAR     74  70  87 SW5       29.93F
DANBURY        FOG       69  66  90 CALM      29.95F VSB 3/4
GROTON         FOG       68  67  96 S5        29.94S VSB 1
NEW HAVEN      CLEAR     72  70  93 S3        29.93F
CHESTER        NOT AVBL
MERIDEN        CLOUDY    72  69  90 S3        29.92F FOG
WILLIMANTIC    CLEAR     72  69  90 CALM      29.93F FOG
OXFORD         CLEAR     72  64  78 CALM      29.96F
$$

MEZ002-015-021-024-NHZ003-005-008-011-012-014-VTZ005-008-080800-
NORTHERN NEW ENGLAND

CITY           SKY/WX    TMP DP  RH WIND       PRES   REMARKS
PORTLAND ME    CLEAR     67  66  97 S3        29.85F
BANGOR ME      CLOUDY    65  65 100 S7        29.84F FOG
CONCORD NH     CLEAR     69  67  93 S5        29.88S
MANCHESTER NH  PTCLDY    72  70  93 CALM      29.87S
NASHUA NH      CLEAR     71  70  97 CALM      29.89F
PORTSMOUTH NH  PTCLDY    71  69  92 S5        29.86F
JAFFREY NH     CLOUDY    70  68  93 S7        29.93S
KEENE NH       MOCLDY    70  66  88 CALM      29.91S
BURLINGTON VT  LGT RAIN  74  69  85 S9        29.80F
MT. WASHINGTON FOG       54  54 100 W43         N/A  VSB 0
$$

NYZ052-076-080800-
EASTERN NEW YORK

CITY           SKY/WX    TMP DP  RH WIND       PRES   REMARKS
ALBANY         CLOUDY    74  70  87 S8        29.86F
NEW YORK CITY  PTCLDY    80  68  66 SW9       29.92F
$$

ANZALL-080800-
MARINE OBSERVATIONS

STATION/POSITION TIME  TEMP    WIND        PRES    VSBY  WAVE
                       AIR SEA DIR/SP/G                  HT/PER
                 (UTC) (F)     (DEG/KT/KT) (MB)    (MI)  (FT/S)
BOSTON BUOY      0650   67 63  190/ 10/ 12 1012.5F         1/ 4
BUZZARDS BAY     0600          220/ 16/ 17 1014.9F
NANTUCKET SOUND  0550   70 69  220/ 12/ 16 1014.4          1/ 3
MASS BAY-STELLWA 0604   68 65  190/ 10/ 12 1011.5F  1 7/8  2/ 4
ISLE OF SHOALS   0700   70     200/ 18/ 18 1010.9F
S OF BLOCK IS    0608      68                N/A           4/ 5
$$

......................KEY.........................
  SKY/WX - SKY CONDITION/PRESENT WEATHER
  TMP    - TEMPERATURE IN FAHRENHEIT
  DWPT   - DEWPOINT IN FAHRENHEIT
  RH     - RELATIVE HUMIDITY IN PERCENT
  WIND   - DIRECTION AND SPEED IN MPH
  PRES   - MEAN SEA LEVEL PRESSURE IN INCHES OF HG
  WCI    - WIND CHILL INDEX
  VSB    - VISIBILITY IN MILES
  HX     - HEAT INDEX
  TC     - TEMPERATURE IN CELSIUS
  VRB    - VARIABLE WIND DIRECTION
  N/A    - NOT AVAILABLE



USA.gov is the U.S. government's official web portal to all federal, state and local government web resources and services.